Tracking 17265 objects as of 3-September-2015
HD Live streaming from Space Station

Track Soyuz TMA-18M
and Space Station

AVUM R/B

Track AVUM R/B now!
10-day predictions
AVUM R/B is classified as:


NORAD ID: 38086
Int'l Code: 2012-006K
Perigee: 259.1 km
Apogee: 764.0 km
Inclination: 69.5 °
Period: 94.7 minutes
Semi major axis: 6882 km
RCS: 4.0982 m2 (large)
Launch date: February 13, 2012
Source: European Space Agency (ESA)

Note: This is a ROCKET BODY
Your satellite tracking list
Your tracking list is empty





NASA's NSSDC Master Catalog

Two Line Element Set (TLE):
1 38086U 12006K   15244.94225404 +.00040675 +38049-5 +26237-3 0  9994
2 38086 069.4844 317.3943 0366819 094.0771 270.2402 15.20480882188623

Source of the keplerian elements: AFSPC

N2YO: 488